Flag for U.S.A. Weather past 2 weeks in Owensboro, Kentucky, U.S.A.

Now
30 °F

Overcast.


Feels Like: 21 °F
Forecast: 30 / 36 °F
Wind: 10 mph from North

Location: Owensboro / Daviess

Current Time: Jan 26, 2015 at 6:35:03 AM

Latest Report: Jan 26, 2015 at 5:56 AM


Visibility: 10 mi

Pressure: 29.98 "Hg

Humidity: 82%

Dew point: 25 °F

Location of OwensboroLocation

Historic Weather in Owensboro — Graph

°F

Owensboro temperature yesterday

Maximum temperature yesterday: 43 °F (at 11:56 AM)
Minimum temperature yesterday: 33 °F (at 11:56 PM)
Average temperature yesterday: 40 °F

Past Weeks' High & Low Weather Summary

 TemperatureHumidityPressure
High57 °F (Jan 19, 2:56 PM)100% (Jan 12, 5:56 AM)30.57 "Hg (Jan 12, 5:56 AM)
Low23 °F (Jan 16, 6:56 AM)34% (Jan 11, 11:56 AM)29.61 "Hg (Jan 25, 1:56 PM)
Average36 °F77%30.14 "Hg
* Reported Jan 11 4:56 AM — Jan 26 4:56 AM, Owensboro, Weather by CustomWeather, © 2014

Note: Actual official high and low records may vary slightly from our data, if they occured in-between our weather recording intervals... More about our weather records

Advertising

Owensboro weather history for previous 24 hours

 ConditionsComfort  
Time TempWeatherWind HumidityBarometerVisibility
4:56 AM
Jan 26
30 °FOvercast.13 mph82%29.95 "Hg10 mi
4:03 AM30 °FOvercast.13 mph80%29.93 "Hg10 mi
3:56 AM30 °FOvercast.17 mph82%29.94 "Hg10 mi
3:04 AM30 °FOvercast.13 mph86%29.91 "Hg10 mi
2:56 AM30 °FOvercast.12 mph85%29.92 "Hg10 mi
1:56 AM31 °FOvercast.15 mph88%29.90 "Hg10 mi
12:56 AM32 °FOvercast.15 mph92%29.85 "Hg10 mi
11:56 PM
Jan 25
33 °FLight rain. Low clouds.18 mph93%29.82 "Hg10 mi
11:03 PM37 °FFog.16 mph100%29.78 "Hg4 mi
10:56 PM38 °FLight rain. Fog.17 mph96%29.78 "Hg4 mi
9:56 PM41 °FLow clouds.16 mph96%29.74 "Hg7 mi
8:56 PM40 °FLight rain. Low clouds.9 mph100%29.72 "Hg7 mi
7:56 PM40 °FOvercast.3 mph100%29.70 "Hg9 mi
6:56 PM40 °FLight rain. Mostly cloudy.No wind100%29.69 "Hg7 mi
5:56 PM41 °FLight rain. Overcast.No wind96%29.67 "Hg7 mi
4:56 PM41 °FLight rain. Mostly cloudy.7 mph92%29.64 "Hg7 mi
3:56 PM42 °FLight rain. Fog.8 mph93%29.63 "Hg5 mi
2:56 PM43 °FLight rain. Fog.8 mph93%29.62 "Hg5 mi
1:56 PM43 °FLight rain. Mostly cloudy.9 mph93%29.61 "Hg7 mi
12:56 PM42 °FLight rain. Fog.6 mph93%29.63 "Hg5 mi
11:56 AM43 °FLight rain. Mostly cloudy.10 mph85%29.63 "Hg10 mi
10:56 AM42 °FLight rain. Mostly cloudy.8 mph86%29.67 "Hg8 mi
9:56 AM41 °FLight rain. Overcast.8 mph85%29.69 "Hg9 mi
8:56 AM41 °FPartly sunny.9 mph76%29.70 "Hg10 mi
7:56 AM40 °FPartly sunny.7 mph80%29.70 "Hg10 mi
6:56 AM39 °FPartly sunny.9 mph79%29.70 "Hg10 mi
Weather by CustomWeather, © 2014

See weather overviewHow to use our weather pages